Location: Bellerive
(46.9237°N, 7.0223°E)
Time: 20:24:31
(UTC+00:00)

Daily predictions for brighter satellites

Satellite Brightness Start Highest point End
(mag) Time Altitude Azimuth Time Altitude Azimuth Time Altitude Azimuth
Cosmos 1408 Rocket 4.1 16:15:25 10° N 16:19:27 36° ENE 16:23:28 10° SE
Cosmos 1271 Rocket 2.8 16:15:48 10° S 16:19:41 66° E 16:23:38 10° NNE
NOSS 2-1 (E) 2.8 16:16:48 10° SW 16:20:05 79° SE 16:23:25 10° NE
CZ-4B R/B 2.9 16:18:25 10° SSE 16:22:36 71° ENE 16:26:34 10° N
Cosmos 1697 Rocket 3.8 16:18:42 10° N 16:23:10 24° NE 16:27:38 10° E
Cosmos 1980 Rocket 3.7 16:21:16 10° N 16:24:37 16° NE 16:27:58 10° ENE
Lacrosse 5 2.7 16:21:55 10° WNW 16:26:55 56° SW 16:31:54 10° SSE
deb Kosmos-1763 4.4 16:23:45 10° S 16:26:57 39° ESE 16:30:10 10° NE
Nadezhda 4 Rocket 4.3 16:21:08 10° N 16:27:11 46° ENE 16:33:15 10° SSE
USA 267 3.4 16:22:24 10° NE 16:28:55 73° NNW 16:35:27 10° WSW
USA 305 3.1 16:24:55 10° WSW 16:29:07 67° NNW 16:33:20 10° NE
Cosmos 1656 4.0 16:24:34 10° NNW 16:29:49 43° NE 16:35:07 10° SE
CZ-2C R/B 2.9 16:25:47 10° SSE 16:30:49 89° E 16:35:40 10° NNW
CZ-4C R/B 4.2 16:27:38 10° N 16:31:33 51° WNW 16:35:14 10° SSW
CZ-4B DEB 4.5 16:27:56 10° SE 16:33:13 47° ENE 16:38:29 10° N
Cosmos 1891 Rocket 4.5 16:29:50 10° S 16:36:00 75° E 16:42:19 10° NNE
Cosmos 1340 Rocket 3.5 16:32:41 10° N 16:36:24 33° ENE 16:40:06 10° SE
USA 229 DEB 4.2 16:31:02 10° NW 16:37:55 45° NE 16:45:15 10° ESE
USA 229 4.2 16:31:08 10° NW 16:38:00 45° NE 16:45:19 10° ESE
Cosmos 990 Rocket 4.4 16:36:28 10° N 16:41:20 38° ENE 16:46:09 10° SE
AQUARIUS 4.2 16:37:35 10° SSE 16:41:59 57° ENE 16:46:24 10° N
Lacrosse 5 rocket 3.0 16:39:47 10° NW 16:42:33 19° N 16:45:17 11° NE
ATLAS 2AS CENTAUR R/B 4.1 16:37:55 10° W 16:44:55 34° NNW 16:51:40 10° NE
Cosmos 1513 Rocket 4.4 16:38:57 10° S 16:45:02 83° E 16:51:14 10° N
USA 276 2.3 16:42:25 10° WNW 16:45:30 51° N 16:47:51 15° E
ATLAS CENTAUR R/B 3.9 16:36:31 10° SSW 16:46:57 42° SE 16:50:57 14° ENE
PAYLOAD B 4.4 16:43:26 10° SE 16:48:49 50° ENE 16:54:14 10° N
SJ 16-02 1.8 16:45:54 10° NNW 16:50:15 64° WSW 16:54:34 10° S
Okean 3 Rocket 4.4 16:49:06 10° NNW 16:53:32 55° W 16:57:53 10° S
Cosmos 1500 Rocket 3.8 16:50:00 10° N 16:54:20 48° ENE 16:58:36 10° SSE
Cosmos 2034 Rocket 4.0 16:49:05 10° S 16:55:09 64° E 17:01:14 10° NNE
CORIOLIS 4.1 16:54:16 10° SSE 16:59:38 86° ENE 17:05:06 10° NNW
USA 306 3.5 16:56:56 10° W 17:01:04 48° NNW 17:04:00 18° NE
CZ-2D R/B 3.3 16:57:26 10° SSE 17:01:11 53° ENE 17:04:56 10° N
NOSS 2-1 (C) 4.2 16:58:20 10° WSW 17:01:20 34° NW 17:04:09 12° NNE
NOSS 3-1 (A) 4.1 16:54:17 10° NW 17:01:32 61° NE 17:10:03 10° SE
USA 234 4.0 16:56:37 10° SSE 17:03:01 55° SW 17:09:25 10° WNW
Meteor 1-20 Rocket 4.3 16:58:46 10° N 17:04:30 58° ENE 17:10:15 10° SSE
NOSS 3-1 (C) 4.1 16:57:18 10° NW 17:04:45 86° NE 17:13:31 10° SE
Cosmos 1805 Rocket 4.0 17:01:07 10° N 17:05:09 36° ENE 17:09:10 10° SE
Cosmos 1842 Rocket 3.6 17:02:27 10° S 17:06:54 87° W 17:11:24 10° N
Cosmos 1833 Rocket 3.3 17:03:14 10° S 17:08:18 36° ESE 17:11:51 18° NE
NOSS 2-1 (D) 4.5 17:07:50 10° WSW 17:10:42 28° NW 17:13:13 13° NNE
PSLV R/B 3.5 17:09:25 10° SSE 17:13:05 88° ENE 17:16:49 10° NNW
CZ-4B R/B 3.2 17:08:11 10° SE 17:13:30 55° ENE 17:18:44 10° N
Sich 1 3.4 17:12:22 10° N 17:16:22 37° ENE 17:20:21 10° SE
Cosmos 1939 Rocket 4.0 17:12:46 10° S 17:16:46 48° W 17:20:46 10° NNW
SMAP 3.8 17:12:57 10° S 17:17:31 56° W 17:22:07 10° NNW
USA 307 3.6 17:13:27 10° W 17:17:34 44° NNW 17:19:51 23° NE
ARGOS 3.3 17:12:37 10° SE 17:17:48 48° ENE 17:22:58 10° N
ERBS 2.8 17:14:56 10° WSW 17:18:03 48° NNW 17:19:27 27° NNE
Cosmos 1606 4.0 17:15:50 10° SSW 17:19:22 40° WNW 17:22:58 10° N
H-2A R/B 1.9 17:14:11 10° SSE 17:19:25 77° ENE 17:24:32 10° N
Cosmos 1898 Rocket 3.5 17:14:56 10° NNW 17:20:09 58° ENE 17:25:18 10° SE
Cosmos 1634 Rocket 4.2 17:14:43 10° SSE 17:20:44 48° E 17:26:47 10° NNE
MOS 1-B Rocket 4.0 17:15:39 10° NNE 17:21:20 61° ESE 17:27:38 10° S
COSMOS 2455 3.8 17:19:45 10° SSE 17:24:38 27° ESE 17:25:52 25° E
ATLAS CENTAUR R/B 3.3 17:22:37 10° W 17:26:05 24° NW 17:29:27 11° NNE
Cosmos 2221 3.5 17:22:31 10° SSW 17:26:36 46° WNW 17:30:46 10° N
Cosmos 468 Rocket 3.9 17:21:36 10° S 17:26:39 61° ESE 17:30:21 19° NNE
Landsat 5 4.0 17:27:18 32° ENE 17:28:13 37° E 17:32:01 10° SSE
Cosmos 44 3.5 17:23:51 10° NW 17:28:38 68° WSW 17:33:06 10° SSE
COSMO-SKYMED 1 2.6 17:29:13 19° NNE 17:32:12 57° E 17:36:28 10° S
Cosmos 2026 Rocket 3.8 17:28:34 10° N 17:34:46 71° E 17:40:50 10° SSE
Cosmos 540 Rocket 3.7 17:30:33 10° S 17:35:22 44° ESE 17:37:03 33° ENE
SL-08 RB Rocket 4.0 17:31:20 10° SE 17:35:45 45° ENE 17:40:10 10° N
deb Chang Zheng 4 3.4 17:31:50 10° SSE 17:36:08 80° ENE 17:40:28 10° NNW
Cosmos 2195 Rocket 4.4 17:30:43 10° N 17:36:53 85° E 17:43:04 10° S
CZ-2C R/B 2.5 17:33:13 10° NNE 17:38:27 66° E 17:43:35 10° S
SJ-11-01 4.2 17:34:55 10° SSE 17:39:39 71° ENE 17:44:23 10° N
USA 308 3.8 17:35:57 10° W 17:39:56 38° NNW 17:41:12 30° NNE
Okean O Rocket 1.5 17:35:58 10° SSE 17:40:23 73° ENE 17:44:51 10° N
Cosmos 1500 3.4 17:37:05 10° N 17:44:46 - SSE 17:40:06 46° NE
Helios 1B 4.4 17:40:04 22° NNE 17:42:49 73° ESE 17:47:08 10° S
Meteor 1-25 Rocket 4.3 17:38:19 10° NNW 17:43:53 77° W 17:49:26 10° S
ISS -2.8 17:41:56 10° WNW 17:44:55 36° N 17:44:55 36° N
Meteor 2-21 4.3 17:40:09 10° N 17:46:18 78° E 17:52:21 10° SSE
CZ-4C R/B 3.3 17:40:27 10° NNW 17:47:01 43° NE 17:49:48 33° E
YAOGAN 1 3.9 17:50:22 25° NNE 17:50:22 25° NNE 17:52:26 10° N
Meteor 1-5 Rocket 4.4 17:49:33 10° N 17:55:25 54° ENE 18:01:14 10° SSE
CZ-4 R/B 3.7 18:00:22 13° N 18:00:22 13° N 18:00:55 10° N
Cosmos 2084 3.5 17:54:00 10° NW 17:58:19 82° SW 17:59:42 44° SSE
Cosmos 2322 Rocket 4.0 17:55:45 10° N 17:57:36 15° NNE 17:57:36 15° NNE
Cosmos 2369 3.6 17:53:47 10° NNW 17:59:32 70° ENE 18:02:24 30° SE
GEOS 3 Rocket 3.6 17:56:54 18° SE 18:00:51 82° SW 18:06:05 10° NW
Cosmos 1782 2.7 17:57:58 10° S 18:01:59 84° W 18:02:36 62° N
Cosmos 1697 Rocket 2.8 18:02:07 10° NNW 18:07:44 72° WSW 18:13:17 10° SSE
Cosmos 1937 Rocket 3.6 18:02:40 10° NNW 18:08:01 79° WSW 18:13:19 10° SSE
Cosmos 1763 Rocket 3.9 18:03:21 10° SW 18:08:20 58° WNW 18:11:17 24° N
USA 305 4.1 18:05:41 10° WNW 18:09:22 32° N 18:09:22 32° N
NOSS 2-2 (C) 4.2 18:04:35 10° NW 18:09:38 66° NE 18:10:59 52° ESE
Cosmos 1980 Rocket 2.1 18:04:07 10° NNW 18:09:47 66° ENE 18:10:40 57° ESE
Cosmos 841 Rocket 3.3 18:04:46 10° S 18:09:54 68° ESE 18:10:09 67° E
USA 267 4.0 18:08:54 29° NNE 18:11:26 40° NNW 18:17:26 10° WNW
SL-16 R/B 3.8 18:09:18 10° N 18:11:40 20° NNE 18:11:40 20° NNE
Spot 2 4.4 18:14:27 19° SSE 18:18:09 87° ENE 18:23:20 10° NNW
Cosmos 2082 Rocket 2.2 18:13:22 10° S 18:18:33 59° SE 18:18:33 59° SE
USA 276 4.5 18:18:30 10° WNW 18:19:58 24° W 18:19:58 24° W
Lacrosse 5 rocket 3.4 18:19:26 10° NW 18:20:53 18° NNW 18:20:53 18° NNW
Cosmos 1151 Rocket 4.4 18:18:46 10° S 18:20:53 29° S 18:20:53 29° S
COSMOS 2406 3.3 18:18:43 10° SSW 18:24:28 78° WNW 18:26:02 50° NNE
Cosmos 2278 3.8 18:19:55 10° NNW 18:24:48 57° NNE 18:24:48 57° NNE
USA 229 DEB 4.4 18:22:00 10° NW 18:29:13 59° WSW 18:36:50 10° SSE
USA 229 4.4 18:22:05 10° NW 18:29:18 60° WSW 18:36:56 10° SSE
Cosmos 372 Rocket 4.1 18:29:42 10° NNW 18:34:55 73° WSW 18:35:15 70° SW
ATLAS 2AS CENTAUR R/B 4.4 18:32:36 10° NW 18:38:16 22° N 18:39:54 20° NNE
Meteor 2-8 Rocket 4.3 18:32:21 10° S 18:38:30 85° E 18:38:41 83° NE
Cosmos 1833 Rocket 3.8 18:46:54 10° WSW 18:52:10 40° NW 18:53:35 34° NNW
COSMOS 2455 3.4 19:04:11 10° SW 19:09:04 53° W 19:09:04 53° W
ATLAS CENTAUR R/B 4.2 19:12:10 10° W 19:16:49 29° WNW 19:16:49 29° WNW
CZ-4C R/B 3.3 19:28:50 10° NW 19:35:02 60° W 19:35:02 60° W
Cosmos 1980 Rocket 4.4 19:49:06 10° NW 19:52:30 21° W 19:52:30 21° W
